[[{"header":{"parameterUnit":"m.s-1","parameterCategory":1,"la1":30.2991,"la2":30.254,"lo1":-89.0895,"lo2":-89.0444,"dy":0.0017,"dx":0.0017,"nx":28,"ny":28,"refTime":"2025-05-23T09:00:00:Z","depth":0,"parameterNumber":2,"parameterNumberName":"U-component_of_WINDS"},"data":[0,0,0,0,0,0,0,0,0,0,0,0,0,0,0,0,0,0,0,0,0,0,0,0,0,0,0,0,0,0,0,0,0,0,0,0,0,0,0,0,0,0,0,0,0,0,0,0,0,0,0,0,0,0,0,0,0,0,-1.3657,-1.3656,0,-1.3566,-1.3565,-1.3564,-1.3475,-1.3474,-1.3473,-1.3472,-1.3377,-1.3376,-1.3374,0,0,0,0,0,0,0,0,0,0,0,0,0,-1.3753,-1.3752,-1.3657,-1.3656,-1.3655,-1.3566,-1.3565,-1.3564,-1.3475,-1.3474,-1.3472,-1.3471,-1.3377,-1.3376,-1.3374,0,0,0,0,0,0,0,0,0,0,0,0,0,-1.3692,-1.3751,-1.3657,-1.36,-1.3594,-1.3567,-1.3565,-1.3564,-1.3476,-1.3474,-1.3472,-1.347,-1.3378,-1.3376,-1.3374,-1.3395,0,0,-1.3367,-1.3366,0,0,0,0,0,0,0,0,-1.3695,-1.3688,-1.3609,-1.3604,-1.3597,-1.353,-1.3564,-1.3507,-1.3476,-1.352,-1.3472,-1.347,-1.3429,-1.3423,-1.341,-1.3391,-1.3387,-1.3367,-1.3366,-1.3365,-1.3364,0,0,0,0,0,0,0,-1.37,-1.3692,-1.3621,-1.3608,-1.3601,-1.3579,-1.3568,-1.3553,-1.3486,-1.3516,-1.351,-1.35,-1.3426,-1.3412,-1.3407,-1.3385,-1.3367,-1.3365,-1.3364,-1.3363,-1.3381,-1.3383,0,0,0,0,0,0,-1.3713,-1.3696,-1.3624,-1.3618,-1.3643,-1.3578,-1.3566,-1.3553,-1.3486,-1.3474,-1.3502,-1.3497,-1.3416,-1.3409,-1.3403,-1.3424,-1.3365,-1.3363,-1.3362,-1.3379,-1.3381,-1.3383,0,0,0,0,0,0,-1.3715,-1.3707,-1.3628,-1.3655,-1.3643,-1.3579,-1.3565,-1.3553,-1.3539,-1.3475,-1.3462,-1.35,-1.3415,-1.3406,-1.3398,-1.3419,-1.3362,-1.336,-1.3377,-1.338,-1.3382,-1.3466,0,0,0,0,0,0,-1.3718,-1.3709,-1.3716,-1.3656,-1.3642,-1.3625,-1.3566,-1.3552,-1.3535,-1.3528,-1.347,-1.3459,-1.3413,-1.3402,-1.3396,-1.3415,-1.3358,-1.3375,-1.3378,-1.3381,-1.3461,-1.3472,-1.348,0,0,0,0,0,-1.3722,-1.3743,-1.3717,-1.3709,-1.365,-1.3626,-1.3618,-1.3565,-1.3538,-1.3544,-1.3504,-1.346,-1.3419,-1.3402,-1.3395,-1.3414,-1.3373,-1.3377,-1.3381,-1.3457,-1.347,-1.348,0,0,0,0,0,0,-1.3806,-1.3734,-1.3704,-1.3706,-1.3673,-1.3611,-1.3618,-1.358,-1.3554,-1.3547,-1.3483,-1.347,-1.347,-1.3441,-1.3424,-1.3431,-1.339,-1.3393,-1.345,-1.3462,-1.3471,-1.3477,-1.3356,0,0,0,0,0,-1.3825,-1.3812,-1.3749,-1.3757,-1.3742,-1.3683,-1.3671,-1.3633,-1.3596,-1.3581,-1.354,-1.3505,-1.3484,-1.3471,-1.3448,-1.3457,-1.3444,-1.3467,-1.3477,-1.3485,-1.3487,-1.3491,-1.35,-1.3396,-1.3396,-1.3396,0,0,-1.3863,-1.3822,-1.3818,-1.3773,-1.3743,-1.373,-1.3672,-1.3661,-1.3651,-1.3579,-1.3569,-1.3538,-1.3495,-1.3496,-1.3495,-1.3472,-1.3513,-1.349,-1.3497,-1.3495,-1.3496,-1.3506,-1.3515,-1.3399,-1.3399,-1.3398,0,0,-1.3927,-1.3895,-1.3898,-1.387,-1.3825,-1.3786,-1.3788,-1.3732,-1.3708,-1.3698,-1.3644,-1.3632,-1.3597,-1.3568,-1.3549,-1.3605,-1.3564,-1.36,-1.3648,-1.3653,-1.3661,-1.3668,-1.3688,-1.3696,-1.3603,-1.3603,-1.3603,0,-1.398,-1.3959,-1.3904,-1.3897,-1.3879,-1.3815,-1.3818,-1.3793,-1.3743,-1.3732,-1.3708,-1.3664,-1.363,-1.3624,-1.3638,-1.3625,-1.3624,-1.3605,-1.3664,-1.3671,-1.3676,-1.3694,-1.3702,-1.3607,-1.3607,-1.3606,-1.3606,0,-1.4027,-1.4014,-1.4022,-1.3977,-1.396,-1.3958,-1.3902,-1.3892,-1.3857,-1.3821,-1.3811,-1.3769,-1.3737,-1.3733,-1.3698,-1.3723,-1.371,-1.3676,-1.3633,-1.3692,-1.3708,-1.3714,-1.3614,-1.3612,-1.3611,-1.361,0,0,-1.4139,-1.4065,-1.4069,-1.4048,-1.3995,-1.3984,-1.3979,-1.3949,-1.3941,-1.391,-1.3904,-1.3878,-1.3846,-1.3825,-1.3786,-1.379,-1.3838,-1.3756,-1.3754,-1.3772,-1.3862,-1.3888,-1.3897,-1.3811,-1.3812,-1.3813,-1.3866,0,-1.4193,-1.4182,-1.4133,-1.4135,-1.4123,-1.4063,-1.4059,-1.4027,-1.3994,-1.3978,-1.3941,-1.3923,-1.3883,-1.387,-1.3871,-1.3832,-1.3855,-1.3827,-1.3805,-1.3805,-1.3817,-1.3905,-1.3932,-1.3984,-1.3872,-1.3873,-1.3874,0,-1.4254,-1.4228,-1.423,-1.4179,-1.4172,-1.4169,-1.4138,-1.4124,-1.4086,-1.4062,-1.404,-1.3997,-1.3989,-1.395,-1.3939,-1.3921,-1.391,-1.3889,-1.389,-1.3885,-1.3842,-1.3902,-1.3999,-1.4007,-1.3883,-1.3882,-1.3882,0,-1.4336,-1.4301,-1.4298,-1.4282,-1.4222,-1.4222,-1.4197,-1.4158,-1.4143,-1.4116,-1.4106,-1.4078,-1.4063,-1.4043,-1.3994,-1.397,-1.3988,-1.3945,-1.3968,-1.3969,-1.3973,-1.3973,-1.4069,-1.3967,-1.3967,-1.3967,-1.3967,0,-1.4401,-1.4405,-1.4334,-1.4332,-1.4334,-1.4278,-1.4282,-1.4252,-1.4218,-1.4209,-1.4156,-1.4148,-1.4085,-1.4071,-1.4033,-1.4029,-1.4023,-1.4003,-1.3992,-1.4007,-1.4009,-1.3997,-1.3992,-1.3969,-1.3968,-1.3968,-1.3968,0,-1.4492,-1.4444,-1.4437,-1.4382,-1.4368,-1.4372,-1.4325,-1.4321,-1.4286,-1.4275,-1.427,-1.4214,-1.4194,-1.4144,-1.4111,-1.4086,-1.4093,-1.4074,-1.4106,-1.4099,-1.4125,-1.4123,-1.4215,-1.4224,-1.4118,-1.4119,-1.412,0,-1.4536,-1.4537,-1.4483,-1.4474,-1.4451,-1.4437,-1.4422,-1.4368,-1.4355,-1.4313,-1.4314,-1.4291,-1.4269,-1.4241,-1.4197,-1.4172,-1.4152,-1.4186,-1.4148,-1.4163,-1.4152,-1.4153,-1.4153,-1.4194,-1.4196,-1.4197,-1.4198,0,-1.462,-1.4597,-1.4577,-1.4551,-1.4535,-1.4511,-1.4484,-1.448,-1.4419,-1.4407,-1.4387,-1.437,-1.4338,-1.4315,-1.4284,-1.4258,-1.4218,-1.4211,-1.4215,-1.4229,-1.4247,-1.4238,-1.4128,-1.4208,-1.4207,-1.4207,-1.4206,-1.4206,-1.4688,-1.4687,-1.4649,-1.4629,-1.4604,-1.4581,-1.4575,-1.4539,-1.4522,-1.4491,-1.4461,-1.4444,-1.4408,-1.4362,-1.4339,-1.4325,-1.4304,-1.431,-1.4311,-1.4313,-1.432,-1.4251,-1.4319,-1.4319,-1.4319,-1.4318,-1.4318,0,-1.4768,-1.4742,-1.4725,-1.4689,-1.4675,-1.464,-1.4609,-1.4599,-1.4585,-1.4555,-1.4535,-1.4513,-1.4491,-1.4447,-1.4422,-1.4419,-1.44,-1.4414,-1.4413,-1.4408,-1.434,-1.4339,-1.443,-1.443,-1.443,-1.443,-1.443,-1.443,-1.4809,-1.4805,-1.4778,-1.4762,-1.4734,-1.4718,-1.4704,-1.4682,-1.4658,-1.4636,-1.4618,-1.459,-1.4554,-1.4526,-1.4505,-1.4492,-1.4485,-1.4505,-1.4487,-1.4424,-1.4413,-1.4403,-1.4401,-1.4504,-1.4504,-1.4555,-1.4556,-1.4556]},{"header":{"parameterUnit":"m.s-1","parameterCategory":1,"la1":30.2991,"la2":30.254,"lo1":-89.0895,"lo2":-89.0444,"dy":0.0017,"dx":0.0017,"nx":28,"ny":28,"refTime":"2025-05-23T09:00:00:Z","depth":0,"parameterNumber":3,"parameterNumberName":"V-component_of_WINDS"},"data":[0,0,0,0,0,0,0,0,0,0,0,0,0,0,0,0,0,0,0,0,0,0,0,0,0,0,0,0,0,0,0,0,0,0,0,0,0,0,0,0,0,0,0,0,0,0,0,0,0,0,0,0,0,0,0,0,0,0,3.2106,3.2106,0,3.209,3.209,3.209,3.2127,3.2128,3.2129,3.213,3.2109,3.2107,3.2106,0,0,0,0,0,0,0,0,0,0,0,0,0,3.2165,3.2164,3.2106,3.2106,3.2106,3.209,3.209,3.209,3.2127,3.2128,3.213,3.2131,3.2109,3.2107,3.2105,0,0,0,0,0,0,0,0,0,0,0,0,0,3.2143,3.2163,3.2106,3.2122,3.2124,3.209,3.209,3.209,3.2126,3.2128,3.213,3.2132,3.211,3.2108,3.2105,3.2054,0,0,3.2097,3.2096,0,0,0,0,0,0,0,0,3.2144,3.2141,3.212,3.2121,3.2123,3.2113,3.2103,3.2077,3.2126,3.2125,3.213,3.2132,3.2108,3.2106,3.2099,3.2053,3.2052,3.2097,3.2096,3.2095,3.2094,0,0,0,0,0,0,0,3.2146,3.2142,3.21,3.212,3.2121,3.2129,3.2128,3.2098,3.2107,3.2125,3.2128,3.2126,3.2109,3.2101,3.2099,3.2051,3.2097,3.2095,3.2093,3.2092,3.1964,3.1962,0,0,0,0,0,0,3.2146,3.2143,3.21,3.2099,3.2138,3.2127,3.2126,3.2114,3.2107,3.2108,3.2124,3.2128,3.2105,3.2102,3.2098,3.2039,3.2095,3.2092,3.2091,3.1966,3.1964,3.1962,0,0,0,0,0,0,3.2147,3.2142,3.2101,3.2122,3.2117,3.2124,3.211,3.2113,3.2105,3.2107,3.2108,3.2115,3.2106,3.2102,3.2065,3.2038,3.2091,3.2089,3.1968,3.1965,3.1963,3.1919,0,0,0,0,0,0,3.2148,3.2142,3.2123,3.2121,3.2116,3.2069,3.2109,3.2111,3.2101,3.2105,3.2098,3.2098,3.2107,3.2069,3.2063,3.2036,3.2087,3.1971,3.1967,3.1964,3.1923,3.1915,3.1908,0,0,0,0,0,3.215,3.211,3.2122,3.2116,3.2093,3.2068,3.2064,3.2077,3.2099,3.2079,3.2081,3.2099,3.2043,3.2065,3.2058,3.203,3.1972,3.1968,3.1964,3.1926,3.1916,3.1908,0,0,0,0,0,0,3.2106,3.211,3.2123,3.2081,3.2074,3.2074,3.205,3.2066,3.2051,3.2055,3.207,3.2068,3.2029,3.2026,3.2051,3.1981,3.2011,3.2005,3.1984,3.1975,3.1968,3.197,3.2085,0,0,0,0,0,3.2091,3.2072,3.2076,3.2038,3.2034,3.2043,3.2032,3.2042,3.2035,3.2032,3.203,3.2021,3.2002,3.1988,3.197,3.1923,3.1922,3.19,3.1893,3.1887,3.1882,3.1858,3.1848,3.1948,3.1948,3.1948,0,0,3.206,3.206,3.2047,3.2029,3.2025,3.2004,3.204,3.2015,3.1999,3.2027,3.1994,3.1993,3.1983,3.1942,3.1923,3.1938,3.1854,3.1882,3.1877,3.1875,3.1852,3.1843,3.1835,3.1945,3.1945,3.1946,0,0,3.1994,3.1992,3.1961,3.1957,3.1951,3.1957,3.195,3.1948,3.1949,3.1916,3.1937,3.1918,3.1884,3.1877,3.1869,3.1803,3.1819,3.1796,3.1758,3.1734,3.1727,3.172,3.1697,3.1688,3.1791,3.1791,3.1791,0,3.1956,3.1926,3.1942,3.1917,3.1909,3.1936,3.1905,3.19,3.1887,3.1881,3.1898,3.1858,3.1853,3.1811,3.1795,3.1787,3.1779,3.1797,3.1727,3.172,3.1714,3.1692,3.1683,3.1788,3.1789,3.1789,3.1789,0,3.188,3.1859,3.1835,3.1825,3.1814,3.1786,3.1797,3.1784,3.1796,3.18,3.1767,3.1763,3.1746,3.1737,3.1746,3.1696,3.1706,3.1725,3.1755,3.1701,3.1681,3.1673,3.1784,3.1785,3.1786,3.1787,0,0,3.1783,3.1785,3.1776,3.1773,3.1769,3.1753,3.1726,3.1711,3.17,3.1691,3.1669,3.1641,3.1659,3.165,3.166,3.1639,3.1588,3.1661,3.1661,3.1648,3.1534,3.152,3.151,3.1599,3.1598,3.1597,3.1535,0,3.1718,3.1674,3.1689,3.1644,3.1625,3.1652,3.1629,3.1624,3.1627,3.1611,3.1615,3.1595,3.162,3.1615,3.1596,3.1599,3.1565,3.1603,3.1578,3.1577,3.158,3.1499,3.1484,3.1426,3.1527,3.1526,3.1525,0,3.1636,3.1627,3.158,3.1583,3.1575,3.1554,3.1543,3.1527,3.1522,3.1527,3.1518,3.1533,3.1506,3.1537,3.1501,3.1526,3.1517,3.1517,3.1515,3.1513,3.1548,3.1496,3.1407,3.1399,3.1512,3.1513,3.1514,0,3.1571,3.1547,3.1517,3.1513,3.1514,3.1499,3.1498,3.1496,3.1486,3.1476,3.147,3.1456,3.1448,3.1437,3.1447,3.1469,3.141,3.1441,3.1412,3.1412,3.1398,3.1399,3.1308,3.1392,3.1392,3.1392,3.1392,0,3.1497,3.1468,3.1488,3.1469,3.1438,3.1455,3.1423,3.1425,3.1423,3.1404,3.1426,3.1408,3.1423,3.1406,3.1414,3.1384,3.1379,3.1382,3.1384,3.138,3.138,3.1374,3.1379,3.139,3.139,3.1391,3.1391,0,3.1419,3.1431,3.14,3.1405,3.1406,3.1382,3.1386,3.1368,3.1375,3.1351,3.1347,3.1356,3.1338,3.1348,3.1328,3.1334,3.1294,3.1302,3.1297,3.1299,3.127,3.1273,3.1172,3.116,3.1251,3.125,3.1249,0,3.1371,3.135,3.1353,3.1344,3.1343,3.1326,3.1318,3.1335,3.1325,3.1319,3.1302,3.1287,3.1275,3.1245,3.1249,3.1235,3.1242,3.1208,3.124,3.1237,3.1243,3.1244,3.1243,3.1201,3.12,3.12,3.1199,0,3.1285,3.1293,3.1281,3.1272,3.1262,3.1254,3.1249,3.1239,3.1256,3.1244,3.1227,3.1218,3.12,3.1184,3.1172,3.1171,3.1187,3.1189,3.1182,3.1177,3.1176,3.1177,3.128,3.1191,3.1192,3.1192,3.1193,3.1193,3.1221,3.1204,3.1205,3.1191,3.119,3.1184,3.1169,3.1175,3.1162,3.1149,3.116,3.114,3.1137,3.1123,3.1119,3.1104,3.1117,3.1106,3.1104,3.1101,3.1098,3.1178,3.1101,3.1101,3.1102,3.1102,3.1102,0,3.1137,3.114,3.1127,3.112,3.111,3.1129,3.1124,3.1114,3.1096,3.1093,3.1082,3.1063,3.1049,3.1053,3.104,3.1026,3.1034,3.1022,3.1023,3.1023,3.1085,3.1094,3.1017,3.1017,3.1017,3.1017,3.1017,3.1017,3.1093,3.1066,3.1074,3.1046,3.1048,3.1031,3.1027,3.1022,3.102,3.0999,3.0988,3.0991,3.0991,3.0978,3.0966,3.0967,3.0962,3.0948,3.0952,3.101,3.1018,3.1026,3.1034,3.0946,3.0946,3.0891,3.0891,3.089]}]]